ONEWEB-0038, 45145

Orbit data source: Space-Track

ONEWEB-0038, 45145 is a payload satellite owned by One Web (UK) in LEO that was launched on Thu, 06 Feb 2020 UTC via a SOYUZ-2-1B launch vehicle from the Tyuratam Missile And Space Complex (TTMTR). Payload-class satellites include a variety of spacecraft equipped with specific instruments for various scientific and technological missions. These include communications satellites like Starlink; space stations such as the ISS; scientific satellites like the Hubble; Earth observation satellites from companies like Planet Labs, Umbra, and HawkEye 360; GPS; miniature CubeSats for education and research; and military/defense satellites.

Loading next visibility...
Identifier
45145, 2020-008Q
Orbit
LEO
Country
Flag of UKUK
Related business
Manufacturer
One Web
Mission
Operational Commercial Communications
Bus & Motor
ARROW, Unknown motor
Mass
148 kg wet, ~140 kg dry
Launch date (UTC)
2020-02-06 (6 years ago)
Launch vehicle
SOYUZ-2-1B
Launch site
Tyuratam Missile And Space Complex (TTMTR)
Object type
Payload
Rocket body
Debris
Shape & HBR
Trap Box + 2 Pan, 6.7 m
Radar Cross Section
3.464 m², Large (>1 m²)

Expand to show TLE details & history
Last TLE update: 20 hours ago

TLE from 20 hours ago
0 ONEWEB-0038
1 45145U 20008Q   26036.02287802  .00000464  00000-0  12722-2 0  9995
2 45145  87.8821  47.3615 0000124  89.3517 270.7625 13.11415558293008
Epoch: 2026-02-05T00:32Z
TLE epoch observation values (Epoch: 2026-02-05T00:32:56.660Z)
Latitude
-0.00006°
Longitude
-96.05565°
Altitude
1,220.576 km
Speed
7.244 km/s
True Right ascension
03h 09m 26s
True Declination
0° 00' 00"
Sunlit
Object was in daylight at epoch
Visualization orbit readout
Latitude
Unknown
Longitude
Unknown
Altitude
Unknown
Speed
Unknown
Apparent Right ascension
Unknown
Apparent Declination
Unknown
Sunlit
N/A
Visualization observer readout
Local Sidereal Time
22:08:34
Azimuth
Unknown
Elevation
Unknown
Doppler factor
Unknown
Orbital elements
Apogee altitude
1,214.901 km
Perigee altitude
1,214.712 km
Semi-major axis
7,592.943 km
Eccentricity
0.00001
Inclination
87.8821°
RAAN
47.3615°
Arg. of periapsis
89.3517°
True anomaly
270.76108°
Mean anomaly
270.7625°
Eccentric anomaly
270.76179°
Mean motion
3.28041 °/min
Orbital period
109.74 mins
BSTAR
0.0012722
Loading maneuver chart data...
Computing Atmospheric mass density...
Loading historical data...
Loading historical data...
Loading historical data...
Loading historical data...
Loading historical data...
Loading historical data...
Loading historical data...

Documentation

Showing up to 5 results
|